FW9685 Weather Reports


Display with metric or nautical units.
time (UTC)temp
F
wind
direction
speed
MPH
gust
MPH
rain 1hr
in
rain 24hr
in
rain mn
in
humidity
%
barometer
mb
20260903164613 91 212 10.0 15.0 0.00 0.00 0.00 36 1016.8
20260903163102 90 154 8.0 15.0 0.00 0.00 0.00 38 1016.8
20260903161604 90 182 11.0 19.0 0.00 0.00 0.00 38 1016.8
20260903160104 89 202 11.0 18.0 0.00 0.00 0.00 39 1016.6
20260903154600 88 169 8.0 14.0 0.00 0.00 0.00 39 1016.5
20260903153105 87 189 6.0 14.0 0.00 0.00 0.00 41 1016.6
20260903151600 86 178 7.0 14.0 0.00 0.00 0.00 42 1016.4
20260903150112 85 191 8.0 15.0 0.00 0.00 0.00 43 1016.5
20260903144625 85 190 9.0 17.0 0.00 0.00 0.00 43 1016.5
20260903143103 84 176 7.0 14.0 0.00 0.00 0.00 44 1016.3
20260903141613 84 169 8.0 13.0 0.00 0.00 0.00 44 1016.4
20260903140104 83 184 9.0 18.0 0.00 0.00 0.00 44 1016.2
20260903134631 82 186 6.0 12.0 0.00 0.00 0.00 46 1016.3
20260903133113 81 188 7.0 12.0 0.00 0.00 0.00 48 1016.2
20260903131605 80 171 5.0 8.0 0.00 0.00 0.00 49 1015.8
20260903130106 79 170 3.0 6.0 0.00 0.00 0.00 50 1015.7
20260903124602 79 173 2.0 8.0 0.00 0.00 0.00 50 1015.7
20260903123105 79 181 5.0 8.0 0.00 0.00 0.00 49 1015.6
20260903121600 79 181 7.0 11.0 0.00 0.00 0.00 49 1015.4
20260903120118 79 191 8.0 12.0 0.00 0.00 0.00 48 1015.3
20260903114604 80 192 9.0 12.0 0.00 0.00 0.00 48 1015.3
20260903113102 80 192 8.0 12.0 0.00 0.00 0.00 47 1015.3
20260903111604 80 196 8.0 11.0 0.00 0.00 0.00 47 1015.3
20260903110106 80 201 8.0 13.0 0.00 0.00 0.00 46 1015.2
20260903104622 81 188 10.0 13.0 0.00 0.00 0.00 45 1015.4
20260903103101 81 194 9.0 15.0 0.00 0.00 0.00 45 1015.4
20260903101605 82 190 9.0 16.0 0.00 0.00 0.00 44 1015.5
20260903100058 82 188 9.0 16.0 0.00 0.00 0.00 43 1015.4
20260903094627 82 186 10.0 15.0 0.00 0.00 0.00 43 1015.6
20260903093101 82 206 10.0 16.0 0.00 0.00 0.00 42 1015.5
20260903091616 82 188 10.0 17.0 0.00 0.00 0.00 41 1015.6
20260903090104 83 204 9.0 16.0 0.00 0.00 0.00 41 1015.4
20260903084602 83 190 11.0 17.0 0.00 0.00 0.00 40 1015.3
20260903083103 83 192 9.0 12.0 0.00 0.00 0.00 40 1015.6
20260903081602 84 184 8.0 16.0 0.00 0.00 0.00 39 1015.6
20260903074606 84 178 6.0 13.0 0.00 0.00 0.00 38 1015.7
20260903073101 84 174 7.0 13.0 0.00 0.00 0.00 38 1015.8
20260903071614 84 173 6.0 10.0 0.00 0.00 0.00 39 1015.7
20260903070103 84 168 6.0 10.0 0.00 0.00 0.00 39 1015.8
20260903064603 84 189 5.0 10.0 0.00 0.00 0.00 38 1015.9
20260903063112 85 171 6.0 12.0 0.00 0.00 0.00 37 1015.7
20260903061605 85 163 7.0 11.0 0.00 0.00 0.00 37 1015.8
20260903060104 86 171 6.0 11.0 0.00 0.00 0.00 36 1015.8
20260903054559 86 161 8.0 14.0 0.00 0.00 0.00 35 1015.7
20260903053116 86 163 8.0 15.0 0.00 0.00 0.00 35 1015.7
20260903051602 86 167 8.0 12.0 0.00 0.00 0.00 35 1015.7
20260903050107 86 165 7.0 11.0 0.00 0.00 0.00 34 1015.6
20260903044603 87 160 8.0 14.0 0.00 0.00 0.00 34 1015.6
20260903043112 87 144 7.0 12.0 0.00 0.00 0.00 33 1015.7
20260903041601 87 146 9.0 14.0 0.00 0.00 0.00 32 1015.8
20260903034607 88 150 9.0 13.0 0.00 0.00 0.00 32 1015.9
20260903033102 88 143 8.0 12.0 0.00 0.00 0.00 31 1015.9
20260903031623 88 144 9.0 12.0 0.00 0.00 0.00 31 1015.8
20260903030106 87 134 7.0 10.0 0.00 0.00 0.00 30 1015.7
20260903024602 88 126 7.0 10.0 0.00 0.00 0.00 29 1015.4
20260903023102 88 124 8.0 9.0 0.00 0.00 0.00 29 1015.3
20260903021602 89 126 7.0 8.0 0.00 0.00 0.00 28 1014.9
20260903020107 90 120 7.0 9.0 0.00 0.00 0.00 27 1015.0
20260903014606 92 119 7.0 10.0 0.00 0.00 0.00 26 1014.9
20260903013102 92 126 8.0 13.0 0.00 0.00 0.00 25 1014.9
20260903011612 93 126 7.0 10.0 0.00 0.00 0.00 25 1014.9
20260903010107 94 128 8.0 12.0 0.00 0.00 0.00 24 1014.7
20260903004604 95 149 8.0 12.0 0.00 0.00 0.00 23 1014.8
20260903003119 95 139 10.0 16.0 0.00 0.00 0.00 23 1014.7
20260903001614 96 137 6.0 11.0 0.00 0.00 0.00 23 1014.7
20260903000108 96 130 4.0 9.0 0.00 0.00 0.00 23 1014.8
20260902234601 97 119 10.0 16.0 0.00 0.00 0.00 23 1015.0
20260902233104 97 103 3.0 11.0 0.00 0.00 0.00 23 1015.0
20260902231606 97 192 3.0 13.0 0.00 0.00 0.00 23 1015.1
20260902230107 97 132 1.0 17.0 0.00 0.00 0.00 23 1015.2
20260902224611 97 163 9.0 13.0 0.00 0.00 0.00 23 1015.2
20260902223103 97 189 4.0 15.0 0.00 0.00 0.00 23 1015.2
20260902221609 97 119 10.0 16.0 0.00 0.00 0.00 24 1015.3
20260902220110 97 84 9.0 17.0 0.00 0.00 0.00 23 1015.3
20260902214607 97 177 5.0 13.0 0.00 0.00 0.00 24 1015.4
20260902213101 97 0 2.0 10.0 0.00 0.00 0.00 24 1015.4
20260902211615 96 134 3.0 13.0 0.00 0.00 0.00 25 1015.7
20260902210119 96 71 6.0 17.0 0.00 0.00 0.00 25 1016.0
20260902204608 96 113 6.0 13.0 0.00 0.00 0.00 25 1016.2
20260902203103 96 139 0.0 9.0 0.00 0.00 0.00 25 1016.4
20260902201612 95 146 4.0 14.0 0.00 0.00 0.00 25 1016.9
20260902194600 95 177 6.0 15.0 0.00 0.00 0.00 27 1017.3
20260902193101 95 57 3.0 9.0 0.00 0.00 0.00 25 1017.3
20260902191608 95 144 3.0 14.0 0.00 0.00 0.00 27 1017.6
20260902190104 94 137 5.0 17.0 0.00 0.00 0.00 28 1017.9
20260902184657 94 172 3.0 14.0 0.00 0.00 0.00 27 1018.1
20260902183105 95 200 7.0 15.0 0.00 0.00 0.00 27 1018.3
20260902181616 94 150 5.0 18.0 0.00 0.00 0.00 27 1018.5
20260902180118 93 198 5.0 17.0 0.00 0.00 0.00 29 1018.7
20260902174605 93 237 3.0 17.0 0.00 0.00 0.00 29 1019.0
20260902173106 92 189 6.0 17.0 0.00 0.00 0.00 30 1019.3
20260902171606 92 146 8.0 14.0 0.00 0.00 0.00 31 1019.3
20260902170114 91 170 8.0 16.0 0.00 0.00 0.00 33 1019.4